Regional Weather Roundup
Issued by NWS

Home | Current Version | Previous Version | Graphics & Text | Print | Product List | Glossary On
Versions: 1 2 3 4 5 6 7 8 9 10 11 12 13 14 15 16 17 18 19 20 21 22 23 24 25 26 27 28 29 30 31 32 33 34 35 36 37 38 39 40 41 42 43 44 45 46 47 48 49 50
000
ASUS45 KSLC 040110
RWRUT

UTAH REGIONAL WEATHER ROUNDUP
NATIONAL WEATHER SERVICE SALT LAKE CITY UT
700 PM MDT THU SEP 03 2015

UTZ001>011-023>025-040200-

NORTHERN UTAH

CITY           SKY/WX    TMP DP  RH WIND       PRES   REMARKS
BRIGHAM CITY   PTSUNNY   81  32  17 CALM      29.75F
HILL AFB       PTCLDY    83  33  16 S16       29.78F
LOGAN          PTCLDY    72  43  35 NE12      29.79R
OGDEN          MOCLDY    84  33  16 S15G25    29.75F
PROVO AIRPORT  PTCLDY    81  50  34 SW9       29.81F
SALT LAKE CITY MOCLDY    88  30  12 S17G35    29.74F
VERNAL         CLEAR     80  39  23 S5        29.88F
WENDOVER       MOSUNNY   88  27  11 S23       29.70F
HEBER CITY     MOCLDY    79  30  17 SW13      29.88S
WEST JORDAN    CLEAR     84  34  16 S23G30    29.79F

$$

UTZ012>022-026-027-040200-

SOUTHERN/CENTRAL UTAH

CITY           SKY/WX    TMP DP  RH WIND       PRES   REMARKS
BLANDING       CLEAR     80  37  21 S12       30.08S
BRYCE CANYON   SUNNY     69  32  25 SW12      30.12S
CEDAR CITY     SUNNY     78  30  17 SW22G29   29.95S
DELTA          SUNNY     84  28  13 S23G30    29.83F
HANKSVILLE     CLEAR     88  32  13 SW10      29.87F
MILFORD        SUNNY     83  31  15 SW24G36   29.87F
MOAB/CYNLANDS  CLEAR     86  35  16 SW12      29.86S
PRICE          PTCLDY    80  35  19 S14       29.93F
ST GEORGE      MOCLDY    93  36  13 S20G26    29.77S
KANAB          SUNNY     81  43  26 S3        29.98

$$

REGIONAL REPORTS     COLORADO/ARIZONA

CITY           SKY/WX    TMP DP  RH WIND       PRES   REMARKS
CRAIG, CO      CLEAR     68  47  46 E17G29    30.04F
GRAND JUNCTION PTCLDY    77  48  35 SE17      29.92F
RIFLE          CLEAR     73  52  47 NE6       30.01F
MONTROSE       CLEAR     75  51  43 W8        30.03F
CORTEZ         CLEAR     80  42  25 CALM      30.03S
PAGE, AZ       CLEAR     89  33  13 S6        29.87S
GRAND CANYON   PTCLDY    74  37  26 SW13G23   30.11R
KINGMAN        SUNNY     89  31  12 SW21G29   29.86S
FLAGSTAFF      CLEAR     70  42  36 SW16      30.16S

$$

REGIONAL REPORTS    NEVADA/IDAHO/WYOMING

CITY           SKY/WX    TMP DP  RH WIND       PRES   REMARKS
LAS VEGAS, NV  MOSUNNY   96  32  10 W14G22    29.66F HX  90
ELY            MOSUNNY   77  24  14 S22G35    29.90F
ELKO           MOSUNNY   78  27  15 W20       29.79S
POCATELLO, ID  LGT RAIN  73  41  31 SW25G32   29.85R
BURLEY         MOSUNNY   69  44  40 W12       29.81F
EVANSTON, WY   CLEAR     74  25  16 SW22      29.98F
ROCK SPRINGS   CLEAR     74  30  19 S16       29.97F
KEMMERER       PTCLDY   N/A N/A N/A SW18G25   29.99F

$$


USA.gov is the U.S. government's official web portal to all federal, state and local government web resources and services.